Falfurrias, TX

6:31 PM CST on December 07, 2019 (GMT -0600)
Falfurrias

Weather History for KBKS - September, 2019

Change the Weather History Date:

Saturday, September 21, 2019

  Actual Average (WUND) Record (WUND)
Temperature  
Mean Temperature 85 °F -  
Max Temperature 92 °F - - (-1)
Min Temperature 78 °F - - (-1)
Cooling Degree Days 20    
Growing Degree Days 35 (Base 50)    
Moisture  
Dew Point 76 °F    
Average Humidity 77    
Maximum Humidity 91    
Minimum Humidity 55    
Precipitation  
Precipitation 0.07 in - - ()
Sea Level Pressure  
Sea Level Pressure 29.96 in    
Wind  
Wind Speed 5 mph ()    
Max Wind Speed 15 mph    
Max Gust Speed 23 mph    
Visibility 9.1 miles    
Events      
Averages and records for this station are not official NWS values.
T = Trace of Precipitation, MM = Missing Value Source: Averaged Metar Reports

Daily Weather History Graph

Daily Weather History Graph

Search for Another Location

Airport or City:

Astronomy

Sep. 21, 2019 Rise Set
Actual Time 7:20 AM CDT 7:30 PM CDT
Civil Twilight 6:57 AM CDT 7:53 PM CDT
Nautical Twilight 6:30 AM CDT 8:20 PM CDT
Astronomical Twilight 6:02 AM CDT 8:47 PM CDT
Moon No Moon Rise 1:54 PM CDT (9/21)
Length of Visible Light 12h 56m
Length of Day
12h 09m
Waning Gibbous, 54% of the Moon is Illuminated
Sep 21
Waning Gibbous
Sep 21
Last Quarter
Sep 28
New
Oct 5
First Quarter
Oct 13
Full

Hourly Weather History & Observations

Time (CDT) Temp. Heat Index Dew Point Humidity Pressure Visibility Wind Dir Wind Speed Gust Speed Precip Events Conditions
12:15 AM 82.4 °F 90.1 °F 76.1 °F 81% 29.98 in 10.0 mi SE 4.6 mph - N/A   Clear
12:35 AM 82.0 °F 89.4 °F 76.1 °F 82% 29.98 in 10.0 mi ESE 5.8 mph - N/A   Clear
12:55 AM 81.5 °F 88.5 °F 76.1 °F 84% 29.98 in 10.0 mi ESE 4.6 mph - N/A   Scattered Clouds
1:15 AM 81.5 °F 88.7 °F 76.5 °F 85% 29.97 in 10.0 mi ESE 5.8 mph - N/A   Scattered Clouds
1:35 AM 81.3 °F 88.3 °F 76.3 °F 85% 29.97 in 10.0 mi ESE 4.6 mph - N/A   Clear
1:55 AM 80.8 °F 87.1 °F 76.1 °F 86% 29.97 in 10.0 mi ESE 4.6 mph - N/A   Clear
2:35 AM 79.9 °F - 76.1 °F 88% 29.96 in 10.0 mi SE 3.5 mph - N/A   Clear
2:55 AM 79.7 °F - 76.1 °F 89% 29.97 in 10.0 mi Calm Calm - N/A   Clear
3:15 AM 79.3 °F - 75.7 °F 89% 29.96 in 7.0 mi ESE 3.5 mph - N/A   Clear
3:35 AM 79.2 °F - 75.9 °F 90% 29.96 in 7.0 mi Calm Calm - N/A   Clear
3:55 AM 78.8 °F - 75.6 °F 90% 29.96 in 7.0 mi East 3.5 mph - N/A   Clear
4:15 AM 78.8 °F - 75.6 °F 90% 29.95 in 7.0 mi ESE 4.6 mph - N/A   Scattered Clouds
4:35 AM 79.0 °F - 75.7 °F 90% 29.95 in 7.0 mi ESE 3.5 mph - N/A   Clear
4:55 AM 79.0 °F - 75.7 °F 90% 29.95 in 7.0 mi ESE 3.5 mph - N/A   Scattered Clouds
5:15 AM 78.8 °F - 75.7 °F 90% 29.95 in 7.0 mi East 4.6 mph - N/A   Clear
5:35 AM 78.8 °F - 75.7 °F 90% 29.95 in 7.0 mi ESE 4.6 mph - N/A   Clear
5:55 AM 78.8 °F - 75.7 °F 90% 29.96 in 7.0 mi ESE 3.5 mph - N/A   Clear
6:15 AM 79.2 °F - 75.7 °F 89% 29.96 in 10.0 mi ESE 3.5 mph - N/A   Clear
6:35 AM 79.0 °F - 75.6 °F 89% 29.97 in 10.0 mi ESE 3.5 mph - N/A   Clear
6:55 AM 78.8 °F - 75.6 °F 90% 29.97 in 7.0 mi Calm Calm - N/A   Clear
7:15 AM 78.3 °F - 75.2 °F 90% 29.97 in 7.0 mi ESE 3.5 mph - N/A   Clear
7:35 AM 78.3 °F - 75.2 °F 90% 29.97 in 7.0 mi East 3.5 mph - N/A   Clear
7:55 AM 78.3 °F - 75.4 °F 91% 29.98 in 5.0 mi East 4.6 mph - N/A   Clear
8:15 AM 79.0 °F - 76.1 °F 91% 29.98 in 5.0 mi East 4.6 mph - N/A   Clear
8:35 AM 80.4 °F 86.5 °F 76.6 °F 88% 29.99 in 7.0 mi ESE 3.5 mph - N/A   Clear
8:55 AM 82.6 °F 91.4 °F 77.2 °F 84% 29.99 in 10.0 mi SE 5.8 mph - N/A   Clear
9:15 AM 84.7 °F 95.2 °F 77.2 °F 78% 30.00 in 10.0 mi SSE 10.4 mph - N/A   Clear
9:35 AM 86.0 °F 96.9 °F 77.0 °F 74% 30.00 in 10.0 mi SSE 6.9 mph - N/A   Clear
9:55 AM 86.9 °F 98.8 °F 77.2 °F 73% 30.01 in 10.0 mi SE 11.5 mph - N/A   Scattered Clouds
10:15 AM 87.6 °F 98.7 °F 76.5 °F 69% 30.01 in 10.0 mi SE 10.4 mph - N/A   Scattered Clouds
10:35 AM 89.1 °F 100.2 °F 76.1 °F 65% 30.01 in 10.0 mi SE 8.1 mph - N/A   Scattered Clouds
10:55 AM 88.9 °F 99.2 °F 75.4 °F 64% 30.01 in 10.0 mi SE 11.5 mph - N/A   Scattered Clouds
11:15 AM 90.1 °F 100.6 °F 75.0 °F 61% 30.00 in 10.0 mi SE 10.4 mph - N/A   Scattered Clouds
11:35 AM 91.4 °F 100.7 °F 73.9 °F 56% 30.00 in 10.0 mi SE 11.5 mph - N/A   Clear
11:55 AM 91.9 °F 101.3 °F 73.8 °F 55% 30.00 in 10.0 mi SE 13.8 mph 18.4 mph N/A   Scattered Clouds
12:35 PM 83.8 °F 93.2 °F 76.6 °F 79% 30.00 in 2.5 mi East 6.9 mph - 0.04 in   Mostly Cloudy
12:55 PM 87.8 °F 103.7 °F 79.9 °F 77% 29.98 in 10.0 mi East 6.9 mph - 0.04 in   Scattered Clouds
1:15 PM 90.3 °F 101.6 °F 75.6 °F 62% 29.98 in 10.0 mi South 10.4 mph - N/A   Scattered Clouds
1:35 PM 89.8 °F 100.9 °F 75.6 °F 63% 29.97 in 10.0 mi ESE 4.6 mph - N/A   Overcast
1:55 PM 86.5 °F 97.4 °F 76.6 °F 72% 29.97 in 10.0 mi East 8.1 mph - N/A   Overcast
2:15 PM 85.3 °F 96.7 °F 77.7 °F 78% 29.96 in 10.0 mi Calm Calm - 0.01 in   Mostly Cloudy
2:35 PM 88.7 °F 96.7 °F 73.0 °F 60% 29.96 in 10.0 mi ESE 12.7 mph 23.0 mph 0.01 in   Mostly Cloudy
2:55 PM 83.3 °F 92.8 °F 77.4 °F 82% 29.96 in 5.0 mi ESE 5.8 mph - 0.03 in   Overcast
3:15 PM 86.5 °F 98.8 °F 77.9 °F 75% 29.95 in 10.0 mi Calm Calm - N/A   Overcast
3:35 PM 91.2 °F 104.0 °F 76.6 °F 62% 29.94 in 10.0 mi SE 6.9 mph - N/A   Scattered Clouds
3:55 PM 92.1 °F 103.0 °F 75.0 °F 57% 29.93 in 10.0 mi ESE 12.7 mph 18.4 mph N/A   Scattered Clouds
4:15 PM 90.9 °F 102.4 °F 75.6 °F 61% 29.93 in 10.0 mi SE 5.8 mph - N/A   Mostly Cloudy
4:35 PM 89.8 °F 100.3 °F 75.0 °F 62% 29.92 in 10.0 mi ESE 6.9 mph - N/A   Scattered Clouds
4:55 PM 91.2 °F 100.8 °F 74.1 °F 57% 29.92 in 10.0 mi ESE 11.5 mph - N/A   Mostly Cloudy
5:15 PM 90.3 °F 99.3 °F 73.9 °F 58% 29.91 in 10.0 mi East 13.8 mph 19.6 mph N/A   Scattered Clouds
5:35 PM 89.6 °F 97.7 °F 73.0 °F 58% 29.92 in 10.0 mi ESE 10.4 mph - N/A   Clear
5:55 PM 90.3 °F 98.2 °F 72.7 °F 56% 29.92 in 10.0 mi ESE 15.0 mph - N/A   Clear
6:15 PM 89.1 °F 97.5 °F 73.4 °F 60% 29.92 in 10.0 mi East 12.7 mph 19.6 mph N/A   Clear
6:35 PM 88.7 °F 97.7 °F 74.3 °F 62% 29.92 in 10.0 mi ESE 11.5 mph 16.1 mph N/A   Clear
6:55 PM 87.8 °F 96.6 °F 74.3 °F 64% 29.92 in 10.0 mi ESE 11.5 mph 19.6 mph N/A   Clear
7:15 PM 87.1 °F 95.9 °F 74.5 °F 66% 29.92 in 10.0 mi ESE 12.7 mph - N/A   Clear
7:35 PM 86.0 °F 94.2 °F 74.3 °F 68% 29.93 in 10.0 mi ESE 6.9 mph - N/A   Clear
7:55 PM 85.3 °F 93.4 °F 74.3 °F 70% 29.93 in 10.0 mi ESE 8.1 mph - N/A   Clear
8:15 PM 84.6 °F 92.4 °F 74.5 °F 72% 29.94 in 10.0 mi ESE 8.1 mph - N/A   Clear
8:35 PM 84.0 °F 91.5 °F 74.7 °F 73% 29.94 in 10.0 mi ESE 6.9 mph - N/A   Clear
8:55 PM 83.3 °F 90.8 °F 74.8 °F 76% 29.94 in 10.0 mi ESE 6.9 mph - N/A   Clear
9:15 PM 82.6 °F 89.4 °F 74.8 °F 77% 29.95 in 10.0 mi ESE 5.8 mph - N/A   Clear
9:35 PM 82.0 °F 88.9 °F 75.2 °F 80% 29.96 in 10.0 mi East 3.5 mph - N/A   Clear
9:55 PM 81.5 °F 87.8 °F 75.2 °F 81% 29.97 in 10.0 mi East 3.5 mph - N/A   Clear
10:35 PM 80.2 °F 85.5 °F 75.2 °F 85% 29.98 in 10.0 mi East 3.5 mph - N/A   Clear
10:55 PM 79.7 °F - 75.2 °F 86% 29.98 in 10.0 mi East 3.5 mph - N/A   Clear
11:15 PM 79.3 °F - 75.2 °F 87% 29.98 in 10.0 mi Calm Calm - N/A   Clear
11:35 PM 79.2 °F - 74.8 °F 87% 29.98 in 10.0 mi Calm Calm - N/A   Clear
11:55 PM 78.8 °F - 74.8 °F 88% 29.98 in 10.0 mi East 3.5 mph - N/A   Clear